www.pogodaiklimat.ru

Погода и климат >> Архив погоды >> Индонезия >> Аэропорт Ахмад Яни


ПОГОДА в Аэропорту Ахмад Яни

  • Прогноз погоды в Аэропорту Ахмад Яни
  • Монитор погоды в Аэропорту Ахмад Яни

АРХИВ ПОГОДЫ в Аэропорту Ахмад Яни

Время (UTC), дата Ветер
(напр.,м/с)
 
Видим.   Явления Облачность Т
(С)
Тd
(С)
f
(%)
Тe
(С)
Тes
(С)
Комфортность P
(гПа)
Po
(гПа)
Тmin
(С)
Tmax
(С)
R
(мм)
R24
(мм)
S
(см)
15 13.06 Ю 2 6000 м 9/4 420 м
[Sc Ac trans Ci fib]
+29.6 +24.0 72 +41 +41 опасность
перегрева
1011.4 1011.0
18 13.06 СВ 2 6000 м 9/4 420 м
[Sc Ac trans Ci fib]
+28.2 +23.6 76 +38 +38 очень
душно
1011.0 1010.7
21 13.06 штиль 0 6000 м 9/5 420 м
[Cu med, cong Ac trans Ci fib]
+27.4 +23.6 80 +37 +37 очень
душно
1009.6 1009.2
00 14.06 СВ 2 6000 м 8/3 420 м
[Sc Ac trans Ci fib]
+26.6 +23.4 83 +36 +37 очень
душно
1010.7 1010.4 +26.0
03 14.06 штиль 0 6000 м 9/4 420 м
[Sc Ac trans Ci sp]
+28.6 +24.2 77 +40 +46 очень
душно
1012.3 1011.9
06 14.06 СЗ 3 7000 м 10/4 420 м
[Sc Ac trans Ci sp]
+30.0 +23.3 67 +40 +44 очень
душно
1010.2 1009.8
09 14.06 СЗ 4 7000 м 8/3 420 м
[Cu med, cong Ac trans Ci sp]
+30.4 +23.9 68 +42 +43 опасность
перегрева
1008.1 1007.8
12 14.06 ЮВ 2 6000 м 9/3 420 м
[Sc Ac trans Ci sp]
+28.8 +23.9 75 +40 +40 очень
душно
1009.5 1009.1 +30.8
15 14.06 В 3 6000 м 9/3 420 м
[Sc Ac trans Ci sp]
+27.6 +23.6 79 +38 +38 очень
душно
1011.3 1010.9
18 14.06 В 1 6000 м 8/3 420 м
[Sc Ac trans Ci sp]
+26.8 +23.7 83 +37 +37 очень
душно
1011.2 1010.8
21 14.06 ЮВ 1 6000 м 8/3 420 м
[Sc Ac trans Ci sp]
+25.6 +23.1 86 +34 +34 очень
душно
1010.3 1010.0
00 15.06 В 2 6000 м 6/3 420 м
[Sc Ac trans Ci sp]
+25.4 +23.1 87 +34 +35 очень
душно
1011.1 1010.7 +25.0
03 15.06 штиль 0 7000 м 4/1 420 м
[Cu hum Ac trans Ci fib]
+30.8 +24.0 67 +42 +56 опасность
перегрева
1011.5 1011.1
06 15.06 В 5 8000 м 5/3 420 м
[Cu med, cong Ac trans Ci fib]
+33.8 +23.5 55 +45 +50 опасность
перегрева
1008.8 1008.5
09 15.06 Ю 4 7000 м 8/4 420 м
[Cu med, cong Ac trans Ci fib]
+33.0 +22.4 54 +42 +43 опасность
перегрева
1007.9 1007.6
12 15.06 З 2 6000 м 8/3 420 м
[Cu hum Ac trans Ci sp]
+29.6 +25.1 77 +43 +43 опасность
перегрева
1010.0 1009.7 +34.2
15 15.06 В 3 6000 м {дождь} 8/3 420 м
[Sc Ac trans Ci sp]
+28.0 +24.8 83 +40 +40 очень
душно
1011.5 1011.2 1
18 15.06 ЮВ 3 6000 м {дождь} 9/3 420 м
[Sc Ac trans Ci sp]
+26.8 +22.8 79 +36 +36 очень
душно
1011.3 1010.9 1
21 15.06 В 3 6000 м 9/3 420 м
[Sc Ac trans Ci sp]
+25.6 +22.3 82 +33 +33 очень
душно
1010.6 1010.2
00 16.06 В 3 6000 м 6/3 420 м
[Sc Ac trans Ci sp]
+25.8 +21.9 79 +33 +34 очень
душно
1012.0 1011.6 +24.7 1
03 16.06 В 6 7000 м 5/1 420 м
[Cu hum Ac trans Ci sp]
+30.8 +20.4 54 +38 +42 очень
душно
1012.2 1011.8
06 16.06 В 4 8000 м 6/4 420 м
[Sc Ac trans Ci sp]
+32.8 +21.0 50 +40 +45 очень
душно
1009.9 1009.5
09 16.06 С 6 7000 м 8/4 420 м
[Cu med, cong Ac trans Ci sp]
+30.8 +23.2 64 +41 +42 опасность
перегрева
1009.1 1008.8
12 16.06 З 2 6000 м 8/4 420 м
[Sc Ac trans Ci sp]
+29.0 +23.2 71 +39 +39 очень
душно
1011.2 1010.8 +33.7
15 16.06 В 2 6000 м 9/4 420 м
[Sc Ac trans Ci sp]
+27.8 +21.6 69 +36 +36 очень
душно
1012.8 1012.4
18 16.06 ЮВ 3 6000 м 8/4 420 м
[Sc Ac trans Ci sp]
+26.3 +20.6 71 +33 +33 очень
душно
1012.3 1012.0
00 17.06 СВ 2 6000 м 6/3 420 м
[Sc Ac trans Ci sp]
+25.5 +20.1 72 +31 +32 очень
душно
1012.2 1011.8 +24.2
03 17.06 ЮВ 5 7000 м 5/1 420 м
[Cu hum Ac trans Ci sp]
+30.6 +18.2 48 +35 +40 очень
душно
1012.2 1011.8
06 17.06 В 4 7000 м 5/1 420 м
[Cu hum Ac trans Ci sp]
+32.2 +18.5 44 +37 +43 очень
душно
1009.7 1009.3
09 17.06 В 6 7000 м 5/1 420 м
[Cu hum Ac trans Ci sp]
+32.8 +17.0 39 +36 +37 очень
душно
1008.5 1008.1
12 17.06 С 4 7000 м 5/3 420 м
[Cu hum Ac trans Ci sp]
+28.8 +22.5 69 +38 +38 очень
душно
1010.4 1010.0 +33.0
15 17.06 ЮВ 3 7000 м 5/3 420 м
[Cu hum Ac trans Ci sp]
+27.7 +22.0 71 +36 +36 очень
душно
1012.5 1012.2
18 17.06 ЮВ 1 7000 м 5/3 420 м
[Cu hum Ac trans Ci fib]
+26.2 +22.3 79 +34 +34 очень
душно
1012.0 1011.6
21 17.06 штиль 0 7000 м 5/3 420 м
[Cu hum Ac trans Ci sp]
+25.6 +21.9 80 +33 +33 очень
душно
1011.8 1011.4
00 18.06 Ю 2 6000 м 4/3 420 м
[Sc Ac trans Ci fib]
+25.6 +21.3 77 +32 +33 очень
душно
1012.6 1012.2 +24.6
03 18.06 Ю 6 8000 м 4/3 420 м
[Sc Ac trans Ci fib]
+30.2 +20.4 56 +37 +40 очень
душно
1012.1 1011.8
06 18.06 В 4 8000 м 4/3 420 м
[Cu hum Ac trans Ci fib]
+32.3 +20.2 49 +39 +45 очень
душно
1009.6 1009.3
09 18.06 В 4 8000 м 4/3 420 м
[Cu hum Ac trans Ci fib]
+32.3 +19.2 46 +38 +39 очень
душно
1008.4 1008.1
12 18.06 В 4 7000 м 4/3 420 м
[Cu hum Ac trans Ci fib]
+29.0 +19.3 56 +35 +35 очень
душно
1010.1 1009.7 +32.8
15 18.06 ЮЗ 2 6000 м 4/3 420 м
[Sc Ac trans Ci fib]
+27.3 +20.9 68 +34 +34 очень
душно
1011.7 1011.3
18 18.06 штиль 0 6000 м 4/3 420 м
[Sc Ac trans Ci fib]
+25.3 +20.0 72 +31 +31 очень
душно
1011.3 1011.0
21 18.06 штиль 0 6000 м 4/3 420 м
[Sc Ac trans Ci fib]
+23.7 +20.0 80 +29 +29 душно 1010.8 1010.5
00 19.06 штиль 0 5000 м мгла 4/3 420 м
[Sc Ac trans Ci fib]
+23.4 +20.1 82 +31 +32 очень
душно
1012.0 1011.7 +22.0
03 19.06 В 2 6000 м 4/3 420 м
[Sc Ac trans Ci fib]
+28.8 +20.8 62 +36 +45 очень
душно
1012.4 1012.1
06 19.06 С 5 7000 м 4/3 420 м
[Sc Ac trans Ci fib]
+30.6 +20.8 56 +38 +43 очень
душно
1010.3 1009.9
09 19.06 СЗ 4 8000 м 3/1 420 м
[Cu hum Ac trans Ci fib]
+31.0 +21.5 57 +39 +40 очень
душно
1008.7 1008.3
12 19.06 штиль 0 6000 м 4/3 420 м
[Sc Ac trans Ci fib]
+28.4 +22.4 70 +37 +37 очень
душно
1009.7 1009.3 +31.6
15 19.06 ЮЗ 2 6000 м 4/3 420 м
[Sc Ac trans Ci fib]
+26.6 +21.8 75 +34 +34 очень
душно
1010.4 1010.1
18 19.06 штиль 0 6000 м 4/3 420 м
[Sc Ac trans Ci fib]
+24.5 +19.6 74 +30 +30 очень
душно
1011.6 1011.3
21 19.06 Ю 2 6000 м 4/3 420 м
[Sc Ac trans Ci fib]
+23.0 +19.0 78 +29 +29 очень
душно
1011.5 1011.1
00 20.06 штиль 0 6000 м 8/3 420 м
[Sc Ac trans Ci fib]
+23.6 +19.2 76 +28 +29 душно 1012.2 1011.9 +22.2
03 20.06 В 4 7000 м 4/1 420 м
[Sc Ac trans Ci fib]
+30.0 +12.4 34 +31 +38 жарко 1012.3 1012.0
06 20.06 В 5 8000 м 3/1 420 м
[Sc Ac trans Ci fib]
+32.0 +16.4 39 +35 +41 очень
душно
1009.6 1009.3
09 20.06 В 5 8000 м 3/1 450 м
[Sc Ac trans Ci fib]
+32.4 +15.0 35 +34 +35 очень
жарко
1008.0 1007.7
12 20.06 ЮВ 2 7000 м 3/1 450 м
[Sc Ac trans Ci fib]
+29.2 +22.2 66 +38 +38 очень
душно
1009.5 1009.1 +33.2

 

Местоположение метеостанции Аэропорт Ахмад Яни (Индонезия): широта -6.98 долгота 110.38 высота над уровнем моря 3 м.

В архиве по умолчанию представлена погода в Аэропорту Ахмад Яни за последнюю неделю. Архивные данные за месяц целиком и за предыдущие месяцы, начиная с января 2011 года, Вы можете получить, выбрав интересующий диапазон дат из раскрывающегося списка и нажав кнопку "Ввод!".


*Определитесь, кто Вы:
робот инопланетянин человек

Внимание! Время в таблицах - всемирное. Для получения местного времени необходимо прибавить поправку, которая равна 7 ч.

Смотрите также архив погоды в соседних городах и на ближайших метеорологических станциях:

Погода в Семаранге (Индонезия) (3 км)
Погода в Тегале (Индонезия) (137 км)
Погода в Чилачапе (Индонезия) (173 км)
Погода в Сиребоне (Индонезия) (236 км)
Погода в Сурабая Перак (Индонезия) (259 км)
Погода в Аэропорту Джуанда (Индонезия) (266 км)
Погода в Сангкапуре (Индонезия) (279 км)
Погода в Бандунге (Индонезия) (309 км)
Погода в Сурабая Геданган (Индонезия) (369 км)
Погода в Цитеко (Индонезия) (382 км)

Пояснения к столбцам:

Ветер - указаны скорость ветра в м/с - средняя за 10 мин, порывы в срок и между сроками (в фигурных скобках) и направление, откуда дует ветер: С - северный, СВ - северо-восточный, В - восточный, ЮВ - юго-восточный, Ю - южный, ЮЗ - юго-западный, З - западный, СЗ - северо-западный.
Видимость - горизонтальная дальность видимости в метрах или километрах. При видимости от 1 до 10 км при отсутствии осадков обычно наблюдается дымка, при ухудшении видимости до 1 км и менее - туман. В сухую погоду видимость может ухудшаться дымом, пылью или мглою.
Явления - указаны атмосферные явления, наблюдавшиеся в срок или в последний час перед сроком; фигурными скобками обозначены явления, наблюдавшиеся между сроками (за 1-3 часа до срока); квадратными скобками обозначены град или гололедные отложения с указанием их диаметра в мм.
Облачность - указаны через наклонную черту общая и нижняя облачность в баллах и высота нижней границы облаков в метрах; квадратными скобками обозначены формы облаков: Ci - перистые, Cs - перисто-слоистые, Cc - перисто-кучевые, Ac - высококучевые, As - высокослоистые, Sc - слоисто-кучевые, Ns - слоисто-дождевые, Cu - кучевые, Cb - кучево-дождевые. Подробнее классификацию облаков см. в Атласе облаков (PDF).
T - Температура воздуха - температура, измеренная на высоте 2 м над землей.
Td - Температура точки росы - температура, при понижении до которой содержащийся в воздухе водяной пар достигнет насыщения.
f - Относительная влажность воздуха - влажноcть воздуха, измеренная на высоте 2 м над землей.
Te - Эффективная температура - температура, которую ощущает одетый по сезону человек в тени. Характеристика душности погоды. При расчете учитывается влияние влажности воздуха и скорости ветра на теплоощущения человека.
Tes - Эффективная температура на солнце - температура, которую ощущает человек, с поправкой на солнечный нагрев. Характеристика знойности погоды. Зависит от высоты солнца над горизонтом, облачности и скорости ветра. Ночью, в пасмурную погоду, а также при ветре 12 м/с и более поправка равна нулю.
P - Атмосферное давление - приведенное к уровню моря атмосферное давление.
Po - Атмосферное давление - измеренное на уровне метеостанции атмосферное давление.
Tmin - Минимальная температура - минимум температуры воздуха на высоте 2 м над землей.
Tmax - Максимальная температура - максимум температуры воздуха на высоте 2 м над землей.
R - Количество осадков - Количество выпавших осадков за период времени, мм. При наведении курсора мыши на число - период времени, за который выпало указанное количество осадков.
R24 - Количество осадков - Количество выпавших осадков за 24 часа, мм.
S - Снежный покров - Высота снежного покрова, см. При наведении курсора мыши на число - состояние снежного покрова и степень покрытия местности в баллах.